Location: Chisholm
(54.9102°N, 114.1701°W)
Time: 03:32:31
(UTC+00:00)

ISS - Pass Details

Date: 29 November 2021
Orbit: 413 x 422 km, 51.6° (Epoch: 23 January)

Event Time Altitude Azimuth Distance (km) Brightness Sun altitude
Rises 00:28:26 0° 246° (WSW) 2,382 2.5 -9.7°
Reaches altitude 10° 00:30:36 10° 239° (WSW) 1,516 0.7 -10.0°
Maximum altitude 00:33:49 41° 168° (SSE) 632 -2.8 -10.5°
Enters shadow 00:36:36 13° 99° (E) 1,341 -1.7 -10.8°
